Other Public Products
Issued by NWS Grand Forks, ND

Home | Current Version | Previous Version | Text Only | Print | Product List | Glossary Off
Versions: 1 2 3 4 5 6 7 8 9 10 11 12 13 14 15 16 17 18 19 20 21 22 23 24 25 26 27 28 29 30 31 32 33 34 35 36 37 38 39 40 41 42 43 44 45 46 47 48 49 50

000
FPUS83 KFGF 290010
OPUFGF
PRAIRIE TO PINES WEATHER ROUNDUP
NATIONAL WEATHER SERVICE EASTERN NORTH DAKOTA/GRAND FORKS ND
700 PM CDT MON JUL 28 2014

 **SATELLITE DATA USED TO AUGMENT SKY COVER AT AUTOMATED STATIONS**
 *****  WEATHER ACROSS EASTERN NORTH DAKOTA  *****

CITY           SKY/WX    TMP DP  RH WIND       PRES   REMARKS
GRAND FORKS    MOSUNNY   73  54  51 N5        30.19F
6HR MIN TEMP:  71; 6HR MAX TEMP:  75;

GRAND FORKS AF MOSUNNY   73  56  55 N8        30.20F
GRAND CITY NWS   N/A     72 N/A N/A N5          N/A
BUXTON         NOT AVBL
DEVILS LAKE    MOSUNNY   72  52  49 NW7       30.22S
6HR MIN TEMP:  68; 6HR MAX TEMP:  72;

FARGO          PTSUNNY   73  53  49 N6        30.19F
6HR MIN TEMP:  71; 6HR MAX TEMP:  77;

WAHPETON ARPT  PTCLDY    72  48  43 NW7       30.21S
$$

 *****  WEATHER ACROSS CENTRAL AND WESTERN NORTH DAKOTA  *****

CITY           SKY/WX    TMP DP  RH WIND       PRES   REMARKS
JAMESTOWN      CLOUDY    70  52  52 N3        30.23F
6HR MIN TEMP:  68; 6HR MAX TEMP:  72;

BISMARCK       MOSUNNY   75  49  39 NE7       30.25F
6HR MIN TEMP:  71; 6HR MAX TEMP:  77;

MINOT          SUNNY     73  54  51 NE3       30.23F
6HR MIN TEMP:  70; 6HR MAX TEMP:  76;

MINOT AFB      SUNNY     74  55  51 NE3       30.23F
6HR MIN TEMP:  70; 6HR MAX TEMP:  75;

GARRISON         N/A     73  57  57 SE5       30.25F
6HR MIN TEMP:  69; 6HR MAX TEMP:  75;

WILLISTON      MOSUNNY   80  50  34 E7        30.22F
6HR MIN TEMP:  77; 6HR MAX TEMP:  83;

DICKINSON      SUNNY     77  53  43 E7        30.24F
6HR MIN TEMP:  72; 6HR MAX TEMP:  79;

HETTINGER      SUNNY     76  51  41 E10       30.26F
6HR MIN TEMP:  73; 6HR MAX TEMP:  79;

$$

 *****  OTHER OBSERVATIONS NORTHEAST NORTH DAKOTA  *****

CITY           SKY/WX    TMP DP  RH WIND       PRES   REMARKS
WALHALLA         N/A     72  55  56 N6          N/A
LANGDON        FAIR      72  50  46 NW7       30.23F
CAVALIER       FAIR      73  54  49 NW6       30.20F
GRAFTON        FAIR      73  54  49 NW9       30.20S
CANDO          FAIR      72  54  53 NW5       30.24S
FORT TOTTEN      N/A     74  56  53 NW3       29.95S
ROLLA          FAIR      72  48  43 NW6       30.25F
RUGBY          FAIR      70  54  56 NW7       30.24S
 ***** THE ABOVE OBSERVATIONS ARE NON NWS ARE NOT QUALITY
        CONTROLLED AND MAY MIS-REPORT RAIN FOR SNOW...
$$

 *****  OTHER OBSERVATIONS SOUTHEAST NORTH DAKOTA *****

CITY           SKY/WX    TMP DP  RH WIND       PRES   REMARKS
COOPERSTOWN    NOT AVBL
VALLEY CITY    CLOUDY    72  52  49 NW10      30.23F
OAKES          NOT AVBL
GWINNER        CLOUDY    70  52  52 NW8       30.24F
BUFFALO        NOT AVBL
WYNDMERE       NOT AVBL
 ***** THE ABOVE OBSERVATIONS ARE NON NWS ARE NOT QUALITY
       CONTROLLED AND MAY MIS-REPORT RAIN FOR SNOW...
$$

  *****  WEATHER ACROSS NORTHERN MINNESOTA  *****

CITY           SKY/WX    TMP DP  RH WIND       PRES   REMARKS
FLAG ISLAND    SUNNY     73  54  49 NW8       30.13S
WARROAD        MOSUNNY   75  59  57 W8        30.16S
ROSEAU           N/A     73  57  56 W12       30.16F
HALLOCK        SUNNY     73  54  49 W8        30.18F
THF RVR FALLS  MOSUNNY   72  55  56 W7        30.19F
6HR MIN TEMP:  70; 6HR MAX TEMP:  73;

HALSTAD          N/A     74  52  45 N3          N/A
FOSSTON        SUNNY     72  54  53 NW6       30.20F
BAUDETTE       SUNNY     73  56  54 NW5       30.16F
6HR MIN TEMP:  72; 6HR MAX TEMP:  76;

WASKISH        SUNNY     73  55  53 CALM      30.15F
CROOKSTON      SUNNY     72  55  56 NW8       30.20S
$$
  *****  WEATHER ACROSS CENTRAL AND WEST MINNESOTA  *****

CITY           SKY/WX    TMP DP  RH WIND       PRES   REMARKS
BEMIDJI        SUNNY     71  53  52 W9        30.17F
PARK RAPIDS    MOSUNNY   71  51  49 NW12      30.18F
6HR MIN TEMP:  69; 6HR MAX TEMP:  74;

WADENA         SUNNY     70  54  56 NW8       30.18F
DETROIT LAKES  SUNNY     70  50  49 NW7       30.21F
MOORHEAD       MOSUNNY   72  55  56 NW3       30.21F
FERGUS FALLS   SUNNY     70  48  46 NW8       30.20S
ELBOW LAKE     FAIR      69  54  59 NW8       30.20F
MORRIS MN      SUNNY     72  55  56 NW7       30.20F
STAPLES        MOSUNNY   70  52  52 NW8       30.17F
WHEATON        SUNNY     68  54  60 W6        30.23S
$$
  *****  WEATHER ELSEWHERE ACROSS MINNESOTA  *****

CITY           SKY/WX    TMP DP  RH WIND       PRES   REMARKS
DULUTH         MOSUNNY   72  53  51 NW8       30.10F
6HR MIN TEMP:  70; 6HR MAX TEMP:  75;

INTRNTL FALLS  SUNNY     72  55  55 NW9       30.12S
6HR MIN TEMP:  72; 6HR MAX TEMP:  76;

ELY            SUNNY     70  54  56 NW7       30.10S
CLOQUET        SUNNY     72  52  49 NW6       30.11F
BRAINERD       SUNNY     72  52  49 N8        30.15F
6HR MIN TEMP:  72; 6HR MAX TEMP:  74;

HIBBING        SUNNY     73  53  49 N10       30.12F
6HR MIN TEMP:  70; 6HR MAX TEMP:  76;

ALEXANDRIA     MOSUNNY   72  51  47 NW13      30.20F
6HR MIN TEMP:  70; 6HR MAX TEMP:  74;

SAINT CLOUD    SUNNY     75  54  47 N9        30.15F
6HR MIN TEMP:  73; 6HR MAX TEMP:  79;

MINNEAPOLIS    MOSUNNY   75  52  44 NW12      30.13F
6HR MIN TEMP:  73; 6HR MAX TEMP:  77;

$$

  *****  WEATHER ACROSS SOUTH DAKOTA  *****

CITY           SKY/WX    TMP DP  RH WIND       PRES   REMARKS
SIOUX FALLS    MOSUNNY   72  54  53 N10       30.21F
6HR MIN TEMP:  69; 6HR MAX TEMP:  75;

BROOKINGS      NOT AVBL
WATERTOWN      PTSUNNY   69  49  48 N8        30.23F
6HR MIN TEMP:  67; 6HR MAX TEMP:  74;

HURON          MOSUNNY   73  51  46 N8        30.21F
6HR MIN TEMP:  71; 6HR MAX TEMP:  76;

SISSETON         N/A     71  55  56 N7        30.21F
ABERDEEN       SUNNY     72  51  47 NE6       30.23F
6HR MIN TEMP:  69; 6HR MAX TEMP:  74;

MITCHELL       PTSUNNY   75  51  43 NE8       30.22F
PIERRE         SUNNY     79  52  38 NE7       30.21F
6HR MIN TEMP:  73; 6HR MAX TEMP:  80;

MOBRIDGE       MOSUNNY   76  51  41 NE10      30.22F
RAPID CITY     PTSUNNY   78  54  43 SE8       30.24F
6HR MIN TEMP:  75; 6HR MAX TEMP:  81;

$$

  *****  SOME WEATHER IN NEARBY STATES *****

CITY           SKY/WX    TMP DP  RH WIND       PRES   REMARKS
GLASGOW MT     MOSUNNY   89  45  21 SE9       30.17F
6HR MIN TEMP:  82; 6HR MAX TEMP:  90;

GREAT FALLS MT PTSUNNY   91  36  14 NE6       30.13F
6HR MIN TEMP:  81; 6HR MAX TEMP:  91;

CHEYENNE WY    MOSUNNY   79  52  38 E14       30.31F
6HR MIN TEMP:  78; 6HR MAX TEMP:  84;

SCOTTSBLUFF NE SUNNY     88  58  36 E13       30.19F
6HR MIN TEMP:  78; 6HR MAX TEMP:  90;

OMAHA NE       MOSUNNY   78  54  43 NW9       30.17F
6HR MIN TEMP:  73; 6HR MAX TEMP:  80;

DES MOINES IA  PTSUNNY   73  57  57 NW5       30.15F
6HR MIN TEMP:  72; 6HR MAX TEMP:  78; 6HR PCP: TRACE;

DAVENPORT IA   SUNNY     70  53  54 N7        30.13F
6HR MIN TEMP:  69; 6HR MAX TEMP:  73;

CHICAGO IL     MOSUNNY   69  48  47 E7        30.07S
6HR MIN TEMP:  69; 6HR MAX TEMP:  73;

EAU CLAIRE WI  SUNNY     73  51  46 NW10      30.11S
6HR MIN TEMP:  71; 6HR MAX TEMP:  77;

LA CROSSE WI   SUNNY     74  51  44 NW9       30.11F
6HR MIN TEMP:  74; 6HR MAX TEMP:  78;

$$

  *****  SOME NATIONAL WEATHER *****

CITY           SKY/WX    TMP DP  RH WIND       PRES   REMARKS
LA GUARDIA NY  MOCLDY    76  57  51 W14G23    29.60R
6HR MIN TEMP:  76; 6HR MAX TEMP:  84;




USA.gov is the U.S. government's official web portal to all federal, state and local government web resources and services.